This is the latest recevied weather packets stored in our database for station/object WY7EM. If no packets are shown the sender has not sent any weather packets the latest 10 day(s).
| Time | Temp. | Humidity | Pressure | Rain* | Wind** | Luminosity | Snow |
|---|---|---|---|---|---|---|---|
| 1777488998 | 20° C | 22% | 1016.9 hPa | 0 mm | - | 860 W/m² | - |
| 1777488695 | 20.56° C | 22% | 1017 hPa | 0 mm | - | 856 W/m² | - |
| 1777488392 | 20° C | 22% | 1017.1 hPa | 0 mm | - | 851 W/m² | - |
| 1777488091 | 20° C | 23% | 1017.2 hPa | 0 mm | - | 846 W/m² | - |
| 1777487788 | 20° C | 22% | 1017.1 hPa | 0 mm | - | 841 W/m² | - |
| 1777487486 | 20° C | 22% | 1017.1 hPa | 0 mm | - | 836 W/m² | - |
| 1777487183 | 19.44° C | 23% | 1017.1 hPa | 0 mm | - | 829 W/m² | - |
| 1777486879 | 20.56° C | 22% | 1017.2 hPa | 0 mm | - | 821 W/m² | - |
| 1777486576 | 19.44° C | 23% | 1017 hPa | 0 mm | - | 815 W/m² | - |
| 1777486274 | 18.89° C | 23% | 1017.3 hPa | 0 mm | - | 807 W/m² | - |
| 1777485971 | 19.44° C | 23% | 1017.3 hPa | 0 mm | - | 797 W/m² | - |
| 1777485668 | 19.44° C | 23% | 1017.4 hPa | 0 mm | - | 788 W/m² | - |
| 1777485363 | 18.89° C | 24% | 1017.5 hPa | 0 mm | - | 780 W/m² | - |
| 1777485059 | 17.78° C | 24% | 1017.4 hPa | 0 mm | - | 769 W/m² | - |
| 1777484756 | 17.78° C | 24% | 1017.8 hPa | 0 mm | - | 758 W/m² | - |
| 1777484452 | 18.89° C | 24% | 1017.7 hPa | 0 mm | - | 747 W/m² | - |
| 1777484149 | 18.89° C | 24% | 1017.7 hPa | 0 mm | - | 736 W/m² | - |
| 1777483845 | 17.78° C | 24% | 1017.8 hPa | 0 mm | - | 723 W/m² | - |
| 1777483542 | 18.33° C | 25% | 1017.8 hPa | 0 mm | - | 712 W/m² | - |
| 1777483237 | 17.22° C | 25% | 1017.8 hPa | 0 mm | - | 699 W/m² | - |
| 1777482934 | 17.22° C | 26% | 1018.1 hPa | 0 mm | - | 686 W/m² | - |
| 1777482630 | 17.78° C | 26% | 1018 hPa | 0 mm | - | 674 W/m² | - |
| 1777482327 | 17.78° C | 26% | 1018.1 hPa | 0 mm | - | 660 W/m² | - |
| 1777482024 | 17.22° C | 26% | 1018.1 hPa | 0 mm | - | 647 W/m² | - |
| 1777481722 | 17.78° C | 26% | 1018.1 hPa | 0 mm | - | 637 W/m² | - |
* Rain latest hour (hover to see other rain measurements)
** Current wind speed in m/s (hover to see current wind gust speed)